Location: Philomena
(55.1756°N, 111.6233°W)
Time: 08:19:00
(UTC+00:00)

PCSat - Pass Details

Date: 10 December 2023
Orbit: 784 x 791 km, 67.0° (Epoch: 02 March)

Event Time Altitude Azimuth Distance (km) Brightness Sun altitude
Exits shadow 11:37:21 34° 37° (NE) 1,275 10.9 -33.1°
Drops below altitude 10° 11:40:23 10° 42° (NE) 2,363 12.5 -32.6°
Sets 11:42:48 0° 43° (NE) 3,297 13.4 -32.3°
